Wind_Speed
9 8 7 7 6 5 4 4 3 4 5 5 6 8 8 7 7 8 8 9 8 10
9 8 9 7 5 5 5 1 2 2 3 4 5 6 7 6 6 7 8 8 8 10
10 9 8 7 7 6 4 3 1 1 2 3 4 5 6 6 6 6 8 9 10 10
12 10 9 7 6 6 5 3 1 1 1 2 4 5 6 6 7 8 9 10 10 12
14 11 10 9 8 7 5 3 2 2 2 3 3 4 5 6 8 10 11 12 12 12
17 14 11 10 9 7 6 5 4 3 4 4 4 5 5 6 8 11 12 13 13 14
17 15 13 11 10 9 7 6 5 5 5 5 5 6 5 4 8 11 13 15 15 15
17 15 14 13 11 10 9 7 7 6 6 7 7 8 9 9 13 12 15 15 16 15
18 16 15 14 13 12 10 9 8 8 8 8 8 11 11 14 14 15 14 17 17 16
19 17 17 16 15 13 12 10 10 10 9 10 11 13 13 13 15 17 11 17 16 17
20 19 18 17 16 14 12 12 12 11 11 10 11 14 13 12 15 13 15 15 15 15
22 21 20 19 18 16 14 13 13 12 12 11 12 15 12 12 12 12 14 14 14 15
24 23 21 20 18 16 15 14 12 12 12 12 12 16 16 12 10 12 14 15 16 15
24 23 21 20 18 17 14 14 14 14 13 12 12 14 15 11 9 11 13 16 17 18
Wind_Direction
163 161 155 156 138 138 124 113 71 48 36 29 25 21 14 13 15 11 7 3 359 354
172 162 162 150 138 148 136 102 94 45 26 18 17 7 4 5 0 359 354 351 352 346
170 170 160 159 161 158 164 156 129 27 1 1 1 356 356 350 343 346 345 341 340 338
171 170 165 167 172 170 174 174 201 268 329 336 342 341 343 337 342 342 335 333 331 328
172 177 176 175 181 185 187 213 235 266 290 305 315 326 333 335 335 331 327 326 323 322
176 180 183 183 185 196 203 217 233 258 273 289 298 315 320 325 330 323 320 319 320 315
180 182 186 188 192 202 213 222 233 244 258 272 290 291 294 301 320 319 315 314 310 304
183 185 188 189 197 206 214 224 232 245 257 269 279 273 235 288 318 317 312 311 306 307
185 189 192 194 202 209 218 229 236 242 254 262 274 265 276 295 310 317 308 303 309 310
189 193 197 200 206 213 220 229 236 246 250 255 265 270 276 288 310 313 305 302 309 316
193 198 202 204 210 214 221 228 237 242 245 251 263 269 268 285 312 311 300 304 311 317
197 201 204 207 210 214 220 227 233 240 241 246 257 266 270 288 304 305 303 308 309 314
202 204 207 210 210 215 219 228 232 237 243 247 251 266 271 268 295 304 304 305 304 309
204 204 209 210 208 212 216 225 229 235 241 247 252 258 260 265 288 300 296 297 304 305
Height
878 880 881 882 883 885 886 886 887 887 887 886 885 884 884 884 884 883 882 881 881 880
878 879 880 881 883 884 886 886 886 886 887 886 885 884 884 884 883 882 882 881 880 880
875 878 880 882 882 882 883 884 885 885 886 886 885 884 884 883 882 881 881 880 879 879
873 876 877 879 881 882 883 883 884 883 883 883 883 883 883 882 881 880 880 878 877 877
869 873 874 876 879 880 881 882 882 882 882 881 881 881 881 880 879 879 878 877 876 875
863 868 873 874 876 878 879 880 880 880 880 880 879 879 879 879 878 877 876 875 874 873
862 865 869 871 873 875 877 877 877 877 877 877 877 877 877 876 875 875 874 872 871 870
860 863 866 868 871 872 873 874 874 874 874 875 875 874 873 873 873 872 871 870 868 867
858 860 863 864 867 868 869 870 871 871 871 871 872 870 871 871 870 869 869 867 865 864
854 857 859 861 863 864 866 867 867 868 868 868 869 867 868 868 867 866 865 864 862 860
849 852 854 856 857 859 861 862 863 863 864 864 865 864 864 864 864 864 863 862 860 858
843 846 849 850 852 854 856 857 858 859 859 860 860 859 860 861 861 861 860 859 857 855
837 840 843 845 848 850 851 853 854 855 855 855 856 855 855 856 857 857 857 855 853 852
831 834 837 840 843 845 847 848 849 850 851 851 852 850 850 852 853 854 853 851 849 848